TimeEDT,TemperatureF,Dew PointF,Humidity,Sea Level PressureIn,VisibilityMPH,Wind Direction,Wind SpeedMPH,Gust SpeedMPH,PrecipitationIn,Events,Conditions,WindDirDegrees,DateUTC
12:53 AM,66.0,63.0,90,30.14,9.0,Calm,Calm,-,N/A,,Overcast,0,2012-10-04 04:53:00
1:51 AM,64.4,62.6,94,30.16,7.0,Calm,Calm,-,N/A,,Mostly Cloudy,0,2012-10-04 05:51:00
1:53 AM,64.9,63.0,93,30.14,7.0,Calm,Calm,-,N/A,,Mostly Cloudy,0,2012-10-04 05:53:00
2:34 AM,64.4,62.6,94,30.16,6.0,ESE,3.5,-,N/A,,Mostly Cloudy,110,2012-10-04 06:34:00
2:53 AM,64.9,63.0,93,30.13,5.0,Calm,Calm,-,N/A,,Mostly Cloudy,0,2012-10-04 06:53:00
3:08 AM,64.4,62.6,94,30.15,4.0,Calm,Calm,-,N/A,,Mostly Cloudy,0,2012-10-04 07:08:00
3:15 AM,64.4,62.6,94,30.15,4.0,Calm,Calm,-,N/A,,Scattered Clouds,0,2012-10-04 07:15:00
3:21 AM,64.4,62.6,94,30.16,2.5,Calm,Calm,-,N/A,,Scattered Clouds,0,2012-10-04 07:21:00
3:31 AM,64.4,62.6,94,30.16,1.2,Calm,Calm,-,N/A,,Mostly Cloudy,0,2012-10-04 07:31:00
3:53 AM,64.9,64.0,97,30.13,2.5,Calm,Calm,-,N/A,,Overcast,0,2012-10-04 07:53:00
4:03 AM,64.4,64.4,100,30.16,0.8,Calm,Calm,-,N/A,,Overcast,0,2012-10-04 08:03:00
4:10 AM,64.4,64.4,100,30.16,0.8,Calm,Calm,-,N/A,,Mist,0,2012-10-04 08:10:00
4:29 AM,64.4,64.4,100,30.16,0.2,SSW,3.5,-,N/A,Fog,Fog,210,2012-10-04 08:29:00
4:53 AM,64.9,64.0,97,30.14,0.2,SW,3.5,-,N/A,Fog,Fog,230,2012-10-04 08:53:00
5:01 AM,64.4,64.4,100,30.15,0.2,SSW,3.5,-,N/A,Fog,Fog,210,2012-10-04 09:01:00
5:42 AM,64.4,62.6,94,30.16,0.5,SW,3.5,-,N/A,Fog,Fog,230,2012-10-04 09:42:00
5:53 AM,64.0,63.0,96,30.14,0.8,SW,3.5,-,N/A,,Mist,230,2012-10-04 09:53:00
6:04 AM,64.4,62.6,94,30.16,0.2,SW,3.5,-,N/A,Fog,Fog,220,2012-10-04 10:04:00
6:53 AM,64.0,63.0,96,30.13,0.2,Calm,Calm,-,N/A,Fog,Fog,0,2012-10-04 10:53:00
7:29 AM,62.6,62.6,100,30.15,0.2,South,3.5,-,0.00,Fog,Fog,170,2012-10-04 11:29:00
7:53 AM,63.0,62.1,97,30.13,0.2,Calm,Calm,-,0.00,Fog,Fog,0,2012-10-04 11:53:00
8:10 AM,62.6,62.6,100,30.16,0.8,West,5.8,-,N/A,,Mist,260,2012-10-04 12:10:00
8:24 AM,62.6,62.6,100,30.16,0.2,West,5.8,-,0.00,Fog-Rain,Light Rain,260,2012-10-04 12:24:00
8:53 AM,63.0,62.1,97,30.16,0.2,West,6.9,-,0.00,Fog-Rain,Light Rain,260,2012-10-04 12:53:00
9:02 AM,62.6,62.6,100,30.18,0.2,West,6.9,-,0.01,Fog-Rain,Light Rain,270,2012-10-04 13:02:00
9:16 AM,62.6,62.6,100,30.15,0.2,NNW,4.6,-,0.02,Fog-Rain,Light Rain,340,2012-10-04 13:16:00
9:25 AM,62.6,62.6,100,30.15,1.0,NW,4.6,-,0.03,Rain,Light Rain,310,2012-10-04 13:25:00
9:38 AM,62.6,62.6,100,30.15,0.5,Calm,Calm,-,0.03,Fog-Rain,Light Rain,0,2012-10-04 13:38:00
9:53 AM,63.0,62.1,97,30.13,0.8,SE,4.6,-,0.03,,Mist,140,2012-10-04 13:53:00
9:56 AM,62.6,62.6,100,30.14,3.0,SE,4.6,-,N/A,,Overcast,140,2012-10-04 13:56:00
10:03 AM,62.6,62.6,100,30.15,1.0,SSE,3.5,-,N/A,,Overcast,160,2012-10-04 14:03:00
10:15 AM,62.6,62.6,100,30.15,4.0,South,3.5,-,N/A,,Overcast,190,2012-10-04 14:15:00
10:53 AM,62.6,62.6,100,30.15,0.1,WNW,4.6,-,N/A,Fog,Fog,300,2012-10-04 14:53:00
11:10 AM,62.6,62.6,100,30.16,0.5,SW,4.6,-,N/A,,Overcast,230,2012-10-04 15:10:00
11:51 AM,62.6,62.6,100,30.15,0.1,WNW,4.6,-,N/A,Fog,Fog,290,2012-10-04 15:51:00
11:53 AM,63.0,62.1,97,30.13,0.1,WNW,4.6,-,N/A,Fog,Fog,300,2012-10-04 15:53:00
12:00 PM,62.6,62.6,100,30.14,0.1,Variable,3.5,-,N/A,Fog,Fog,0,2012-10-04 16:00:00
12:34 PM,62.6,62.6,100,30.15,0.5,WSW,4.6,-,N/A,Fog,Fog,240,2012-10-04 16:34:00
12:46 PM,62.6,62.6,100,30.15,1.0,West,4.6,-,N/A,,Overcast,260,2012-10-04 16:46:00
12:53 PM,63.0,62.1,97,30.13,2.5,West,5.8,-,N/A,,Overcast,280,2012-10-04 16:53:00
1:11 PM,62.6,60.8,94,30.14,6.0,West,6.9,-,N/A,,Overcast,260,2012-10-04 17:11:00
1:18 PM,62.6,60.8,94,30.15,7.0,West,6.9,-,N/A,,Overcast,270,2012-10-04 17:18:00
1:40 PM,64.4,60.8,88,30.13,9.0,West,8.1,-,N/A,,Overcast,280,2012-10-04 17:40:00
1:53 PM,64.9,60.1,84,30.12,10.0,WNW,5.8,-,N/A,,Mostly Cloudy,290,2012-10-04 17:53:00
2:53 PM,64.9,59.0,81,30.10,10.0,West,4.6,-,N/A,,Mostly Cloudy,270,2012-10-04 18:53:00
3:53 PM,66.9,57.0,70,30.09,10.0,West,8.1,-,N/A,,Partly Cloudy,270,2012-10-04 19:53:00
4:53 PM,68.0,55.9,65,30.08,10.0,West,6.9,-,N/A,,Partly Cloudy,260,2012-10-04 20:53:00
5:53 PM,66.2,53.6,64,30.10,10.0,West,6.9,-,N/A,,Clear,260,2012-10-04 21:53:00
6:53 PM,63.0,53.1,70,30.08,10.0,Calm,Calm,-,N/A,,Clear,0,2012-10-04 22:53:00
7:53 PM,63.0,54.0,72,30.09,10.0,Calm,Calm,-,N/A,,Clear,0,2012-10-04 23:53:00
8:53 PM,62.1,54.0,75,30.09,10.0,SW,3.5,-,N/A,,Clear,230,2012-10-05 00:53:00
9:53 PM,59.0,54.0,83,30.09,10.0,South,3.5,-,N/A,,Clear,190,2012-10-05 01:53:00
10:53 PM,59.0,55.0,87,30.09,10.0,SW,5.8,-,N/A,,Partly Cloudy,230,2012-10-05 02:53:00
11:53 PM,57.9,55.0,90,30.09,10.0,WSW,4.6,-,N/A,,Mostly Cloudy,240,2012-10-05 03:53:00